Year,Month,Day,Hour,Minute,Value (Times are PST for temperature in C)
2016,01,22,00,00,9.10
2016,01,22,00,01,9.10
2016,01,22,00,02,9.10
2016,01,22,00,03,9.00
2016,01,22,00,04,9.00
2016,01,22,00,05,9.00
2016,01,22,00,06,9.00
2016,01,22,00,07,9.00
2016,01,22,00,08,9.00
2016,01,22,00,09,9.00
2016,01,22,00,10,9.00
2016,01,22,00,11,9.00
2016,01,22,00,12,8.90
2016,01,22,00,13,8.90
2016,01,22,00,14,8.90
2016,01,22,00,15,8.90
2016,01,22,00,16,8.90
2016,01,22,00,17,8.90
2016,01,22,00,18,8.90
2016,01,22,00,19,8.90
2016,01,22,00,20,8.90
2016,01,22,00,21,8.80
2016,01,22,00,22,8.80
2016,01,22,00,23,8.80
2016,01,22,00,24,8.80
2016,01,22,00,25,8.80
2016,01,22,00,26,8.80
2016,01,22,00,27,8.80
2016,01,22,00,28,8.80
2016,01,22,00,29,8.80
2016,01,22,00,30,8.70
2016,01,22,00,31,8.70
2016,01,22,00,32,8.70
2016,01,22,00,33,8.70
2016,01,22,00,34,8.70
2016,01,22,00,35,8.70
2016,01,22,00,36,8.70
2016,01,22,00,37,8.70
2016,01,22,00,38,8.70
2016,01,22,00,39,8.70
2016,01,22,00,40,8.70
2016,01,22,00,41,8.70
2016,01,22,00,42,8.70
2016,01,22,00,43,8.60
2016,01,22,00,44,8.60
2016,01,22,00,45,8.60
2016,01,22,00,46,8.60
2016,01,22,00,47,8.60
2016,01,22,00,48,8.60
2016,01,22,00,49,8.60
2016,01,22,00,50,8.60
2016,01,22,00,51,8.60
2016,01,22,00,52,8.60
2016,01,22,00,53,8.60
2016,01,22,00,54,8.60
2016,01,22,00,55,8.60
2016,01,22,00,56,8.60
2016,01,22,00,57,8.60
2016,01,22,00,58,8.60
2016,01,22,00,59,8.60
2016,01,22,01,00,8.60
2016,01,22,01,01,8.60
2016,01,22,01,02,8.60
2016,01,22,01,03,8.60
2016,01,22,01,04,8.60
2016,01,22,01,05,8.60
2016,01,22,01,06,8.60
2016,01,22,01,07,8.60
2016,01,22,01,08,8.60
2016,01,22,01,09,8.60
2016,01,22,01,10,8.60
2016,01,22,01,11,8.60
2016,01,22,01,12,8.60
2016,01,22,01,13,8.60
2016,01,22,01,14,8.60
2016,01,22,01,15,8.60
2016,01,22,01,16,8.60
2016,01,22,01,17,8.60
2016,01,22,01,18,8.60
2016,01,22,01,19,8.60
2016,01,22,01,20,8.60
2016,01,22,01,21,8.60
2016,01,22,01,22,8.60
2016,01,22,01,23,8.60
2016,01,22,01,24,8.60
2016,01,22,01,25,8.60
2016,01,22,01,26,8.60
2016,01,22,01,27,8.60
2016,01,22,01,28,8.60
2016,01,22,01,29,8.60
2016,01,22,01,30,8.60
2016,01,22,01,31,8.60
2016,01,22,01,32,8.60
2016,01,22,01,33,8.60
2016,01,22,01,34,8.60
2016,01,22,01,35,8.60
2016,01,22,01,36,8.60
2016,01,22,01,37,8.60
2016,01,22,01,38,8.60
2016,01,22,01,39,8.60
2016,01,22,01,40,8.60
2016,01,22,01,41,8.60
2016,01,22,01,42,8.60
2016,01,22,01,43,8.60
2016,01,22,01,44,8.60
2016,01,22,01,45,8.60
2016,01,22,01,46,8.60
2016,01,22,01,47,8.60
2016,01,22,01,48,8.60
2016,01,22,01,49,8.60
2016,01,22,01,50,8.60
2016,01,22,01,51,8.60
2016,01,22,01,52,8.60
2016,01,22,01,53,8.60
2016,01,22,01,54,8.60
2016,01,22,01,55,8.60
2016,01,22,01,56,8.60
2016,01,22,01,57,8.60
2016,01,22,01,58,8.60
2016,01,22,01,59,8.60
2016,01,22,02,00,8.60
2016,01,22,02,01,8.60
2016,01,22,02,02,8.60
2016,01,22,02,03,8.60
2016,01,22,02,04,8.60
2016,01,22,02,05,8.60
2016,01,22,02,06,8.60
2016,01,22,02,07,8.60
2016,01,22,02,08,8.60
2016,01,22,02,09,8.60
2016,01,22,02,10,8.60
2016,01,22,02,11,8.60
2016,01,22,02,12,8.60
2016,01,22,02,13,8.70
2016,01,22,02,14,8.70
2016,01,22,02,15,8.70
2016,01,22,02,16,8.70
2016,01,22,02,17,8.70
2016,01,22,02,18,8.70
2016,01,22,02,19,8.70
2016,01,22,02,20,8.70
2016,01,22,02,21,8.70
2016,01,22,02,22,8.70
2016,01,22,02,23,8.70
2016,01,22,02,24,8.70
2016,01,22,02,25,8.70
2016,01,22,02,26,8.70
2016,01,22,02,27,8.70
2016,01,22,02,28,8.70
2016,01,22,02,29,8.70
2016,01,22,02,30,8.70
2016,01,22,02,31,8.70
2016,01,22,02,32,8.70
2016,01,22,02,33,8.70
2016,01,22,02,34,8.70
2016,01,22,02,35,8.70
2016,01,22,02,36,8.70
2016,01,22,02,37,8.70
2016,01,22,02,38,8.70
2016,01,22,02,39,8.70
2016,01,22,02,40,8.70
2016,01,22,02,41,8.70
2016,01,22,02,42,8.70
2016,01,22,02,43,8.70
2016,01,22,02,44,8.70
2016,01,22,02,45,8.70
2016,01,22,02,46,8.70
2016,01,22,02,47,8.70
2016,01,22,02,48,8.70
2016,01,22,02,49,8.60
2016,01,22,02,50,8.60
2016,01,22,02,51,8.60
2016,01,22,02,52,8.60
2016,01,22,02,53,8.60
2016,01,22,02,54,8.60
2016,01,22,02,55,8.60
2016,01,22,02,56,8.60
2016,01,22,02,57,8.60
2016,01,22,02,58,8.50
2016,01,22,02,59,8.50
2016,01,22,03,00,8.50
2016,01,22,03,01,8.50
2016,01,22,03,02,8.50
2016,01,22,03,03,8.50
2016,01,22,03,04,8.50
2016,01,22,03,05,8.50
2016,01,22,03,06,8.40
2016,01,22,03,07,8.40
2016,01,22,03,08,8.40
2016,01,22,03,09,8.40
2016,01,22,03,10,8.40
2016,01,22,03,11,8.40
2016,01,22,03,12,8.40
2016,01,22,03,13,8.40
2016,01,22,03,14,8.40
2016,01,22,03,15,8.40
2016,01,22,03,16,8.40
2016,01,22,03,17,8.40
2016,01,22,03,18,8.40
2016,01,22,03,19,8.40
2016,01,22,03,20,8.40
2016,01,22,03,21,8.40
2016,01,22,03,22,8.40
2016,01,22,03,23,8.40
2016,01,22,03,24,8.40
2016,01,22,03,25,8.40
2016,01,22,03,26,8.40
2016,01,22,03,27,8.40
2016,01,22,03,28,8.40
2016,01,22,03,29,8.40
2016,01,22,03,30,8.50
2016,01,22,03,31,8.40
2016,01,22,03,32,8.40
2016,01,22,03,33,8.40
2016,01,22,03,34,8.40
2016,01,22,03,35,8.40
2016,01,22,03,36,8.40
2016,01,22,03,37,8.40
2016,01,22,03,38,8.40
2016,01,22,03,39,8.40
2016,01,22,03,40,8.50
2016,01,22,03,41,8.50
2016,01,22,03,42,8.60
2016,01,22,03,43,8.60
2016,01,22,03,44,8.60
2016,01,22,03,45,8.60
2016,01,22,03,46,8.60
2016,01,22,03,47,8.60
2016,01,22,03,48,8.60
2016,01,22,03,49,8.60
2016,01,22,03,50,8.60
2016,01,22,03,51,8.60
2016,01,22,03,52,8.60
2016,01,22,03,53,8.60
2016,01,22,03,54,8.60
2016,01,22,03,55,8.60
2016,01,22,03,56,8.60
2016,01,22,03,57,8.60
2016,01,22,03,58,8.60
2016,01,22,03,59,8.60
2016,01,22,04,00,8.60
2016,01,22,04,01,8.60
2016,01,22,04,02,8.60
2016,01,22,04,03,8.60
2016,01,22,04,04,8.60
2016,01,22,04,05,8.60
2016,01,22,04,06,8.60
2016,01,22,04,07,8.60
2016,01,22,04,08,8.60
2016,01,22,04,09,8.60
2016,01,22,04,10,8.60
2016,01,22,04,11,8.60
2016,01,22,04,12,8.60
2016,01,22,04,13,8.60
2016,01,22,04,14,8.60
2016,01,22,04,15,8.70
2016,01,22,04,16,8.70
2016,01,22,04,17,8.70
2016,01,22,04,18,8.70
2016,01,22,04,19,8.70
2016,01,22,04,20,8.70
2016,01,22,04,21,8.70
2016,01,22,04,22,8.70
2016,01,22,04,23,8.70
2016,01,22,04,24,8.70
2016,01,22,04,25,8.70
2016,01,22,04,26,8.70
2016,01,22,04,27,8.70
2016,01,22,04,28,8.70
2016,01,22,04,29,8.70
2016,01,22,04,30,8.70
2016,01,22,04,31,8.70
2016,01,22,04,32,8.70
2016,01,22,04,33,8.70
2016,01,22,04,34,8.70
2016,01,22,04,35,8.70
2016,01,22,04,36,8.70
2016,01,22,04,37,8.70
2016,01,22,04,38,8.70
2016,01,22,04,39,8.70
2016,01,22,04,40,8.70
2016,01,22,04,41,8.70
2016,01,22,04,42,8.70
2016,01,22,04,43,8.70
2016,01,22,04,44,8.70
2016,01,22,04,45,8.70
2016,01,22,04,46,8.70
2016,01,22,04,47,8.70
2016,01,22,04,48,8.70
2016,01,22,04,49,8.70
2016,01,22,04,50,8.70
2016,01,22,04,51,8.70
2016,01,22,04,52,8.70
2016,01,22,04,53,8.70
2016,01,22,04,54,8.70
2016,01,22,04,55,8.70
2016,01,22,04,56,8.70
2016,01,22,04,57,8.70
2016,01,22,04,58,8.70
2016,01,22,04,59,8.70
2016,01,22,05,00,8.70
2016,01,22,05,01,8.70
2016,01,22,05,02,8.70
2016,01,22,05,03,8.70
2016,01,22,05,04,8.70
2016,01,22,05,05,8.70
2016,01,22,05,06,8.70
2016,01,22,05,07,8.70
2016,01,22,05,08,8.70
2016,01,22,05,09,8.70
2016,01,22,05,10,8.70
2016,01,22,05,11,8.70
2016,01,22,05,12,8.70
2016,01,22,05,13,8.70
2016,01,22,05,14,8.60
2016,01,22,05,15,8.60
2016,01,22,05,16,8.60
2016,01,22,05,17,8.60
2016,01,22,05,18,8.60
2016,01,22,05,19,8.60
2016,01,22,05,20,8.60
2016,01,22,05,21,8.60
2016,01,22,05,22,8.60
2016,01,22,05,23,8.60
2016,01,22,05,24,8.60
2016,01,22,05,25,8.60
2016,01,22,05,26,8.60
2016,01,22,05,27,8.60
2016,01,22,05,28,8.60
2016,01,22,05,29,8.60
2016,01,22,05,30,8.60
2016,01,22,05,31,8.60
2016,01,22,05,32,8.60
2016,01,22,05,33,8.60
2016,01,22,05,34,8.60
2016,01,22,05,35,8.60
2016,01,22,05,36,8.60
2016,01,22,05,37,8.60
2016,01,22,05,38,8.60
2016,01,22,05,39,8.60
2016,01,22,05,40,8.60
2016,01,22,05,41,8.60
2016,01,22,05,42,8.60
2016,01,22,05,43,8.60
2016,01,22,05,44,8.60
2016,01,22,05,45,8.60
2016,01,22,05,46,8.60
2016,01,22,05,47,8.60
2016,01,22,05,48,8.60
2016,01,22,05,49,8.60
2016,01,22,05,50,8.60
2016,01,22,05,51,8.70
2016,01,22,05,52,8.70
2016,01,22,05,53,8.70
2016,01,22,05,54,8.70
2016,01,22,05,55,8.70
2016,01,22,05,56,8.70
2016,01,22,05,57,8.70
2016,01,22,05,58,8.70
2016,01,22,05,59,8.70
2016,01,22,06,00,8.80
2016,01,22,06,01,8.70
2016,01,22,06,02,8.70
2016,01,22,06,03,8.70
2016,01,22,06,04,8.70
2016,01,22,06,05,8.70
2016,01,22,06,06,8.70
2016,01,22,06,07,8.60
2016,01,22,06,08,8.60
2016,01,22,06,09,8.60
2016,01,22,06,10,8.60
2016,01,22,06,11,8.60
2016,01,22,06,12,8.50
2016,01,22,06,13,8.50
2016,01,22,06,14,8.40
2016,01,22,06,15,8.40
2016,01,22,06,16,8.40
2016,01,22,06,17,8.40
2016,01,22,06,18,8.40
2016,01,22,06,19,8.40
2016,01,22,06,20,8.40
2016,01,22,06,21,8.40
2016,01,22,06,22,8.40
2016,01,22,06,23,8.50
2016,01,22,06,24,8.50
2016,01,22,06,25,8.50
2016,01,22,06,26,8.50
2016,01,22,06,27,8.50
2016,01,22,06,28,8.50
2016,01,22,06,29,8.50
2016,01,22,06,30,8.50
2016,01,22,06,31,8.50
2016,01,22,06,32,8.50
2016,01,22,06,33,8.60
2016,01,22,06,34,8.60
2016,01,22,06,35,8.60
2016,01,22,06,36,8.70
2016,01,22,06,37,8.70
2016,01,22,06,38,8.80
2016,01,22,06,39,8.80
2016,01,22,06,40,8.80
2016,01,22,06,41,8.80
2016,01,22,06,42,8.80
2016,01,22,06,43,8.80
2016,01,22,06,44,8.80
2016,01,22,06,45,8.80
2016,01,22,06,46,8.80
2016,01,22,06,47,8.80
2016,01,22,06,48,8.80
2016,01,22,06,49,8.80
2016,01,22,06,50,8.80
2016,01,22,06,51,8.80
2016,01,22,06,52,8.80
2016,01,22,06,53,8.80
2016,01,22,06,54,8.80
2016,01,22,06,55,8.80
2016,01,22,06,56,8.80
2016,01,22,06,57,8.80
2016,01,22,06,58,8.80
2016,01,22,06,59,8.80
2016,01,22,07,00,8.80
2016,01,22,07,01,8.80
2016,01,22,07,02,8.80
2016,01,22,07,03,8.80
2016,01,22,07,04,8.80
2016,01,22,07,05,8.80
2016,01,22,07,06,8.80
2016,01,22,07,07,8.80
2016,01,22,07,08,8.80
2016,01,22,07,09,8.80
2016,01,22,07,10,8.80
2016,01,22,07,11,8.80
2016,01,22,07,12,8.80
2016,01,22,07,13,8.80
2016,01,22,07,14,8.80
2016,01,22,07,15,8.80
2016,01,22,07,16,8.80
2016,01,22,07,17,8.80
2016,01,22,07,18,8.80
2016,01,22,07,19,8.80
2016,01,22,07,20,8.80
2016,01,22,07,21,8.80
2016,01,22,07,22,8.80
2016,01,22,07,23,8.70
2016,01,22,07,24,8.70
2016,01,22,07,25,8.70
2016,01,22,07,26,8.70
2016,01,22,07,27,8.70
2016,01,22,07,28,8.70
2016,01,22,07,29,8.80
2016,01,22,07,30,8.80
2016,01,22,07,31,8.80
2016,01,22,07,32,8.80
2016,01,22,07,33,8.80
2016,01,22,07,34,8.80
2016,01,22,07,35,8.80
2016,01,22,07,36,8.80
2016,01,22,07,37,8.80
2016,01,22,07,38,8.80
2016,01,22,07,39,8.80
2016,01,22,07,40,8.80
2016,01,22,07,41,8.80
2016,01,22,07,42,8.80
2016,01,22,07,43,8.80
2016,01,22,07,44,8.80
2016,01,22,07,45,8.80
2016,01,22,07,46,8.80
2016,01,22,07,47,8.80
2016,01,22,07,48,8.80
2016,01,22,07,49,8.80
2016,01,22,07,50,8.80
2016,01,22,07,51,8.80
2016,01,22,07,52,8.80
2016,01,22,07,53,8.80
2016,01,22,07,54,8.80
2016,01,22,07,55,8.80
2016,01,22,07,56,8.80
2016,01,22,07,57,8.80
2016,01,22,07,58,8.80
2016,01,22,07,59,8.70
2016,01,22,08,00,8.70
2016,01,22,08,01,8.70
2016,01,22,08,02,8.70
2016,01,22,08,03,8.70
2016,01,22,08,04,8.70
2016,01,22,08,05,8.70
2016,01,22,08,06,8.70
2016,01,22,08,07,8.70
2016,01,22,08,08,8.70
2016,01,22,08,09,8.70
2016,01,22,08,10,8.60
2016,01,22,08,11,8.60
2016,01,22,08,12,8.60
2016,01,22,08,13,8.60
2016,01,22,08,14,8.60
2016,01,22,08,15,8.50
2016,01,22,08,16,8.40
2016,01,22,08,17,8.40
2016,01,22,08,18,8.40
2016,01,22,08,19,8.40
2016,01,22,08,20,8.30
2016,01,22,08,21,8.30
2016,01,22,08,22,8.30
2016,01,22,08,23,8.30
2016,01,22,08,24,8.20
2016,01,22,08,25,8.20
2016,01,22,08,26,8.20
2016,01,22,08,27,8.20
2016,01,22,08,28,8.20
2016,01,22,08,29,8.20
2016,01,22,08,30,8.10
2016,01,22,08,31,8.10
2016,01,22,08,32,8.10
2016,01,22,08,33,8.10
2016,01,22,08,34,8.10
2016,01,22,08,35,8.10
2016,01,22,08,36,8.00
2016,01,22,08,37,8.00
2016,01,22,08,38,8.00
2016,01,22,08,39,8.00
2016,01,22,08,40,8.00
2016,01,22,08,41,8.00
2016,01,22,08,42,7.90
2016,01,22,08,43,7.90
2016,01,22,08,44,7.90
2016,01,22,08,45,7.90
2016,01,22,08,46,7.90
2016,01,22,08,47,7.90
2016,01,22,08,48,7.90
2016,01,22,08,49,7.90
2016,01,22,08,50,7.90
2016,01,22,08,51,7.90
2016,01,22,08,52,7.90
2016,01,22,08,53,7.90
2016,01,22,08,54,7.90
2016,01,22,08,55,7.90
2016,01,22,08,56,7.90
2016,01,22,08,57,7.90
2016,01,22,08,58,7.90
2016,01,22,08,59,7.90
2016,01,22,09,00,7.90
2016,01,22,09,01,7.90
2016,01,22,09,02,7.90
2016,01,22,09,03,7.90
2016,01,22,09,04,7.90
2016,01,22,09,05,7.90
2016,01,22,09,06,7.90
2016,01,22,09,07,7.90
2016,01,22,09,08,7.90
2016,01,22,09,09,7.90
2016,01,22,09,10,7.90
2016,01,22,09,11,7.90
2016,01,22,09,12,7.90
2016,01,22,09,13,7.90
2016,01,22,09,14,7.90
2016,01,22,09,15,7.90
2016,01,22,09,16,7.90
2016,01,22,09,17,7.90
2016,01,22,09,18,7.90
2016,01,22,09,19,7.80
2016,01,22,09,20,7.80
2016,01,22,09,21,7.90
2016,01,22,09,22,7.90
2016,01,22,09,23,7.90
2016,01,22,09,24,7.90
2016,01,22,09,25,7.90
2016,01,22,09,26,7.90
2016,01,22,09,27,7.90
2016,01,22,09,28,7.90
2016,01,22,09,29,8.00
2016,01,22,09,30,8.00
2016,01,22,09,31,8.00
2016,01,22,09,32,8.10
2016,01,22,09,33,8.10
2016,01,22,09,34,8.10
2016,01,22,09,35,8.10
2016,01,22,09,36,8.10
2016,01,22,09,37,8.10
2016,01,22,09,38,8.10
2016,01,22,09,39,8.20
2016,01,22,09,40,8.20
2016,01,22,09,41,8.20
2016,01,22,09,42,8.20
2016,01,22,09,43,8.20
2016,01,22,09,44,8.20
2016,01,22,09,45,8.20
2016,01,22,09,46,8.20
2016,01,22,09,47,8.30
2016,01,22,09,48,8.30
2016,01,22,09,49,8.30
2016,01,22,09,50,8.30
2016,01,22,09,51,8.30
2016,01,22,09,52,8.40
2016,01,22,09,53,8.40
2016,01,22,09,54,8.40
2016,01,22,09,55,8.40
2016,01,22,09,56,8.40
2016,01,22,09,57,8.40
2016,01,22,09,58,8.50
2016,01,22,09,59,8.50
2016,01,22,10,00,8.50
2016,01,22,10,01,8.50
2016,01,22,10,02,8.50
2016,01,22,10,03,8.50
2016,01,22,10,04,8.50
2016,01,22,10,05,8.50
2016,01,22,10,06,8.50
2016,01,22,10,07,8.50
2016,01,22,10,08,8.50
2016,01,22,10,09,8.50
2016,01,22,10,10,8.50
2016,01,22,10,11,8.60
2016,01,22,10,12,8.60
2016,01,22,10,13,8.60
2016,01,22,10,14,8.60
2016,01,22,10,15,8.60
2016,01,22,10,16,8.60
2016,01,22,10,17,8.60
2016,01,22,10,18,8.60
2016,01,22,10,19,8.60
2016,01,22,10,20,8.60
2016,01,22,10,21,8.60
2016,01,22,10,22,8.60
2016,01,22,10,23,8.60
2016,01,22,10,24,8.60
2016,01,22,10,25,8.60
2016,01,22,10,26,8.60
2016,01,22,10,27,8.60
2016,01,22,10,28,8.60
2016,01,22,10,29,8.60
2016,01,22,10,30,8.60
2016,01,22,10,31,8.60
2016,01,22,10,32,8.60
2016,01,22,10,33,8.60
2016,01,22,10,34,8.60
2016,01,22,10,35,8.60
2016,01,22,10,36,8.60
2016,01,22,10,37,8.60
2016,01,22,10,38,8.60
2016,01,22,10,39,8.60
2016,01,22,10,40,8.50
2016,01,22,10,41,8.50
2016,01,22,10,42,8.50
2016,01,22,10,43,8.50
2016,01,22,10,44,8.50
2016,01,22,10,45,8.50
2016,01,22,10,46,8.60
2016,01,22,10,47,8.60
2016,01,22,10,48,8.60
2016,01,22,10,49,8.60
2016,01,22,10,50,8.60
2016,01,22,10,51,8.60
2016,01,22,10,52,8.60
2016,01,22,10,53,8.60
2016,01,22,10,54,8.70
2016,01,22,10,55,8.70
2016,01,22,10,56,8.70
2016,01,22,10,57,8.70
2016,01,22,10,58,8.70
2016,01,22,10,59,8.80
2016,01,22,11,00,8.80
2016,01,22,11,01,8.80
2016,01,22,11,02,8.90
2016,01,22,11,03,8.90
2016,01,22,11,04,8.90
2016,01,22,11,05,8.90
2016,01,22,11,06,8.90
2016,01,22,11,07,8.90
2016,01,22,11,08,8.90
2016,01,22,11,09,8.90
2016,01,22,11,10,8.90
2016,01,22,11,11,8.90
2016,01,22,11,12,8.90
2016,01,22,11,13,9.00
2016,01,22,11,14,9.00
2016,01,22,11,15,9.00
2016,01,22,11,16,9.10
2016,01,22,11,17,9.10
2016,01,22,11,18,9.10
2016,01,22,11,19,9.10
2016,01,22,11,20,9.10
2016,01,22,11,21,9.10
2016,01,22,11,22,9.10
2016,01,22,11,23,9.10
2016,01,22,11,24,9.10
2016,01,22,11,25,9.20
2016,01,22,11,26,9.20
2016,01,22,11,27,9.20
2016,01,22,11,28,9.20
2016,01,22,11,29,9.20
2016,01,22,11,30,9.20
2016,01,22,11,31,9.20
2016,01,22,11,32,9.20
2016,01,22,11,33,9.20
2016,01,22,11,34,9.20
2016,01,22,11,35,9.20
2016,01,22,11,36,9.20
2016,01,22,11,37,9.20
2016,01,22,11,38,9.20
2016,01,22,11,39,9.20
2016,01,22,11,40,9.20
2016,01,22,11,41,9.30
2016,01,22,11,42,9.30
2016,01,22,11,43,9.30
2016,01,22,11,44,9.30
2016,01,22,11,45,9.30
2016,01,22,11,46,9.30
2016,01,22,11,47,9.30
2016,01,22,11,48,9.30
2016,01,22,11,49,9.30
2016,01,22,11,50,9.30
2016,01,22,11,51,9.30
2016,01,22,11,52,9.40
2016,01,22,11,53,9.40
2016,01,22,11,54,9.40
2016,01,22,11,55,9.40
2016,01,22,11,56,9.50
2016,01,22,11,57,9.50
2016,01,22,11,58,9.60
2016,01,22,11,59,9.70
2016,01,22,12,00,9.70
2016,01,22,12,01,9.70
2016,01,22,12,02,9.70
2016,01,22,12,03,9.80
2016,01,22,12,04,9.80
2016,01,22,12,05,9.80
2016,01,22,12,06,9.90
2016,01,22,12,07,9.90
2016,01,22,12,08,9.90
2016,01,22,12,09,9.90
2016,01,22,12,10,9.90
2016,01,22,12,11,9.90
2016,01,22,12,12,9.90
2016,01,22,12,13,9.90
2016,01,22,12,14,9.90
2016,01,22,12,15,9.90
2016,01,22,12,16,9.90
2016,01,22,12,17,10.00
2016,01,22,12,18,10.00
2016,01,22,12,19,10.00
2016,01,22,12,20,10.00
2016,01,22,12,21,10.10
2016,01,22,12,22,10.10
2016,01,22,12,23,10.10
2016,01,22,12,24,10.10
2016,01,22,12,25,10.10
2016,01,22,12,26,10.10
2016,01,22,12,27,10.20
2016,01,22,12,28,10.20
2016,01,22,12,29,10.20
2016,01,22,12,30,10.30
2016,01,22,12,31,10.30
2016,01,22,12,32,10.30
2016,01,22,12,33,10.30
2016,01,22,12,34,10.40
2016,01,22,12,35,10.50
2016,01,22,12,36,10.50
2016,01,22,12,37,10.60
2016,01,22,12,38,10.60
2016,01,22,12,39,10.60
2016,01,22,12,40,10.60
2016,01,22,12,41,10.50
2016,01,22,12,42,10.50
2016,01,22,12,43,10.40
2016,01,22,12,44,10.40
2016,01,22,12,45,10.40
2016,01,22,12,46,10.40
2016,01,22,12,47,10.40
2016,01,22,12,48,10.40
2016,01,22,12,49,10.40
2016,01,22,12,50,10.40
2016,01,22,12,51,10.40
2016,01,22,12,52,10.40
2016,01,22,12,53,10.40
2016,01,22,12,54,10.50
2016,01,22,12,55,10.50
2016,01,22,12,56,10.60
2016,01,22,12,57,10.60
2016,01,22,12,58,10.60
2016,01,22,12,59,10.70
2016,01,22,13,00,10.70
2016,01,22,13,01,10.70
2016,01,22,13,02,10.70
2016,01,22,13,03,10.70
2016,01,22,13,04,10.60
2016,01,22,13,05,10.60
2016,01,22,13,06,10.50
2016,01,22,13,07,10.50
2016,01,22,13,08,10.40
2016,01,22,13,09,10.40
2016,01,22,13,10,10.50
2016,01,22,13,11,10.50
2016,01,22,13,12,10.40
2016,01,22,13,13,10.40
2016,01,22,13,14,10.40
2016,01,22,13,15,10.40
2016,01,22,13,16,10.40
2016,01,22,13,17,10.50
2016,01,22,13,18,10.40
2016,01,22,13,19,10.40
2016,01,22,13,20,10.40
2016,01,22,13,21,10.40
2016,01,22,13,22,10.50
2016,01,22,13,23,10.60
2016,01,22,13,24,10.60
2016,01,22,13,25,10.70
2016,01,22,13,26,10.70
2016,01,22,13,27,10.70
2016,01,22,13,28,10.70
2016,01,22,13,29,10.70
2016,01,22,13,30,10.80
2016,01,22,13,31,10.80
2016,01,22,13,32,10.80
2016,01,22,13,33,10.80
2016,01,22,13,34,10.90
2016,01,22,13,35,10.90
2016,01,22,13,36,10.90
2016,01,22,13,37,10.90
2016,01,22,13,38,10.90
2016,01,22,13,39,11.00
2016,01,22,13,40,10.90
2016,01,22,13,41,11.00
2016,01,22,13,42,11.00
2016,01,22,13,43,11.00
2016,01,22,13,44,10.90
2016,01,22,13,45,10.90
2016,01,22,13,46,10.90
2016,01,22,13,47,10.90
2016,01,22,13,48,10.90
2016,01,22,13,49,10.90
2016,01,22,13,50,11.00
2016,01,22,13,51,11.00
2016,01,22,13,52,11.10
2016,01,22,13,53,11.10
2016,01,22,13,54,11.10
2016,01,22,13,55,11.10
2016,01,22,13,56,11.00
2016,01,22,13,57,11.00
2016,01,22,13,58,11.00
2016,01,22,13,59,11.00
2016,01,22,14,00,10.90
2016,01,22,14,01,10.90
2016,01,22,14,02,10.90
2016,01,22,14,03,11.00
2016,01,22,14,04,10.90
2016,01,22,14,05,10.90
2016,01,22,14,06,10.80
2016,01,22,14,07,10.80
2016,01,22,14,08,10.70
2016,01,22,14,09,10.60
2016,01,22,14,10,10.50
2016,01,22,14,11,10.50
2016,01,22,14,12,10.40
2016,01,22,14,13,10.40
2016,01,22,14,14,10.30
2016,01,22,14,15,10.30
2016,01,22,14,16,10.20
2016,01,22,14,17,10.20
2016,01,22,14,18,10.20
2016,01,22,14,19,10.20
2016,01,22,14,20,10.10
2016,01,22,14,21,10.10
2016,01,22,14,22,10.20
2016,01,22,14,23,10.20
2016,01,22,14,24,10.20
2016,01,22,14,25,10.20
2016,01,22,14,26,10.20
2016,01,22,14,27,10.30
2016,01,22,14,28,10.30
2016,01,22,14,29,10.20
2016,01,22,14,30,10.20
2016,01,22,14,31,10.20
2016,01,22,14,32,10.20
2016,01,22,14,33,10.20
2016,01,22,14,34,10.20
2016,01,22,14,35,10.20
2016,01,22,14,36,10.20
2016,01,22,14,37,10.20
2016,01,22,14,38,10.20
2016,01,22,14,39,10.20
2016,01,22,14,40,10.20
2016,01,22,14,41,10.20
2016,01,22,14,42,10.20
2016,01,22,14,43,10.10
2016,01,22,14,44,10.10
2016,01,22,14,45,10.00
2016,01,22,14,46,10.00
2016,01,22,14,47,9.90
2016,01,22,14,48,9.90
2016,01,22,14,49,9.90
2016,01,22,14,50,9.80
2016,01,22,14,51,9.80
2016,01,22,14,52,9.90
2016,01,22,14,53,9.90
2016,01,22,14,54,9.90
2016,01,22,14,55,9.90
2016,01,22,14,56,9.90
2016,01,22,14,57,9.90
2016,01,22,14,58,9.90
2016,01,22,14,59,9.90
2016,01,22,15,00,10.00
2016,01,22,15,01,10.10
2016,01,22,15,02,10.20
2016,01,22,15,03,10.20
2016,01,22,15,04,10.20
2016,01,22,15,05,10.20
2016,01,22,15,06,10.10
2016,01,22,15,07,10.10
2016,01,22,15,08,10.10
2016,01,22,15,09,10.10
2016,01,22,15,10,10.20
2016,01,22,15,11,10.20
2016,01,22,15,12,10.20
2016,01,22,15,13,10.20
2016,01,22,15,14,10.20
2016,01,22,15,15,10.20
2016,01,22,15,16,10.20
2016,01,22,15,17,10.20
2016,01,22,15,18,10.30
2016,01,22,15,19,10.30
2016,01,22,15,20,10.30
2016,01,22,15,21,10.40
2016,01,22,15,22,10.40
2016,01,22,15,23,10.50
2016,01,22,15,24,10.50
2016,01,22,15,25,10.50
2016,01,22,15,26,10.50
2016,01,22,15,27,10.50
2016,01,22,15,28,10.40
2016,01,22,15,29,10.30
2016,01,22,15,30,10.20
2016,01,22,15,31,10.20
2016,01,22,15,32,10.10
2016,01,22,15,33,10.00
2016,01,22,15,34,9.90
2016,01,22,15,35,9.90
2016,01,22,15,36,9.80
2016,01,22,15,37,9.80
2016,01,22,15,38,9.70
2016,01,22,15,39,9.70
2016,01,22,15,40,9.70
2016,01,22,15,41,9.70
2016,01,22,15,42,9.70
2016,01,22,15,43,9.60
2016,01,22,15,44,9.60
2016,01,22,15,45,9.60
2016,01,22,15,46,9.60
2016,01,22,15,47,9.60
2016,01,22,15,48,9.70
2016,01,22,15,49,9.70
2016,01,22,15,50,9.70
2016,01,22,15,51,9.70
2016,01,22,15,52,9.70
2016,01,22,15,53,9.80
2016,01,22,15,54,9.80
2016,01,22,15,55,9.90
2016,01,22,15,56,10.00
2016,01,22,15,57,10.00
2016,01,22,15,58,10.10
2016,01,22,15,59,10.10
2016,01,22,16,00,10.20
2016,01,22,16,01,10.20
2016,01,22,16,02,10.20
2016,01,22,16,03,10.10
2016,01,22,16,04,10.10
2016,01,22,16,05,10.00
2016,01,22,16,06,9.90
2016,01,22,16,07,9.90
2016,01,22,16,08,9.80
2016,01,22,16,09,9.70
2016,01,22,16,10,9.70
2016,01,22,16,11,9.60
2016,01,22,16,12,9.60
2016,01,22,16,13,9.50
2016,01,22,16,14,9.50
2016,01,22,16,15,9.40
2016,01,22,16,16,9.40
2016,01,22,16,17,9.40
2016,01,22,16,18,9.40
2016,01,22,16,19,9.40
2016,01,22,16,20,9.40
2016,01,22,16,21,9.40
2016,01,22,16,22,9.40
2016,01,22,16,23,9.40
2016,01,22,16,24,9.40
2016,01,22,16,25,9.40
2016,01,22,16,26,9.30
2016,01,22,16,27,9.30
2016,01,22,16,28,9.30
2016,01,22,16,29,9.30
2016,01,22,16,30,9.30
2016,01,22,16,31,9.30
2016,01,22,16,32,9.30
2016,01,22,16,33,9.20
2016,01,22,16,34,9.20
2016,01,22,16,35,9.20
2016,01,22,16,36,9.20
2016,01,22,16,37,9.20
2016,01,22,16,38,9.20
2016,01,22,16,39,9.20
2016,01,22,16,40,9.20
2016,01,22,16,41,9.20
2016,01,22,16,42,9.20
2016,01,22,16,43,9.20
2016,01,22,16,44,9.10
2016,01,22,16,45,9.10
2016,01,22,16,46,9.10
2016,01,22,16,47,9.10
2016,01,22,16,48,9.00
2016,01,22,16,49,9.00
2016,01,22,16,50,9.00
2016,01,22,16,51,8.90
2016,01,22,16,52,8.90
2016,01,22,16,53,8.90
2016,01,22,16,54,8.90
2016,01,22,16,55,8.90
2016,01,22,16,56,8.90
2016,01,22,16,57,8.90
2016,01,22,16,58,8.80
2016,01,22,16,59,8.80
2016,01,22,17,00,8.80
2016,01,22,17,01,8.80
2016,01,22,17,02,8.80
2016,01,22,17,03,8.80
2016,01,22,17,04,8.80
2016,01,22,17,05,8.70
2016,01,22,17,06,8.70
2016,01,22,17,07,8.70
2016,01,22,17,08,8.70
2016,01,22,17,09,8.60
2016,01,22,17,10,8.60
2016,01,22,17,11,8.60
2016,01,22,17,12,8.60
2016,01,22,17,13,8.60
2016,01,22,17,14,8.50
2016,01,22,17,15,8.50
2016,01,22,17,16,8.50
2016,01,22,17,17,8.50
2016,01,22,17,18,8.50
2016,01,22,17,19,8.50
2016,01,22,17,20,8.50
2016,01,22,17,21,8.40
2016,01,22,17,22,8.40
2016,01,22,17,23,8.40
2016,01,22,17,24,8.40
2016,01,22,17,25,8.40
2016,01,22,17,26,8.40
2016,01,22,17,27,8.40
2016,01,22,17,28,8.40
2016,01,22,17,29,8.40
2016,01,22,17,30,8.30
2016,01,22,17,31,8.30
2016,01,22,17,32,8.30
2016,01,22,17,33,8.30
2016,01,22,17,34,8.30
2016,01,22,17,35,8.30
2016,01,22,17,36,8.30
2016,01,22,17,37,8.30
2016,01,22,17,38,8.30
2016,01,22,17,39,8.30
2016,01,22,17,40,8.30
2016,01,22,17,41,8.30
2016,01,22,17,42,8.20
2016,01,22,17,43,8.20
2016,01,22,17,44,8.20
2016,01,22,17,45,8.20
2016,01,22,17,46,8.20
2016,01,22,17,47,8.20
2016,01,22,17,48,8.20
2016,01,22,17,49,8.20
2016,01,22,17,50,8.20
2016,01,22,17,51,8.20
2016,01,22,17,52,8.20
2016,01,22,17,53,8.20
2016,01,22,17,54,8.20
2016,01,22,17,55,8.30
2016,01,22,17,56,8.30
2016,01,22,17,57,8.30